Weather in Buvayda

Uzbekistan     40°38′20″N   71°05′02″E
temp.,
°C
wind,
m/s
gust,
m/s
humid.,
%
clouds,
%
prec.,
mm/h
press.,
hPa
HPBL,
m
24 january, sun
sun2423:00−2ne355681 0.0 1041236
02:00−3ene375570 0.0 1041298
05:00−3ne355572 0.0 1040184
08:00−3ne125650 0.0 104051
11:000ene233826 0.0 1037813
14:00+3e33330 0.0 10341049
17:00+2e12390 0.0 103455
20:000s01450 0.0 103423
25 january, mon
mon2523:00−1e12520 0.0 103321
02:00−3ene235945 0.0 103155
05:00−3e225830 0.0 103041
08:00−3e125978 0.0 103034
11:00+1e224281 0.0 1029394
14:00+3e1234100 0.0 1027576
17:00+2ene1238100 0.0 102838
20:00+1nne1141100 0.0 103022
26 january, tue
tue2623:000ne114399 0.0 103021
02:00−1ene124892 0.0 103022
05:00−2ene225679 0.0 102922
08:00−2ene126019 0.0 103124
11:00+3e234019 0.0 1029408
14:00+6ene23310 0.0 1027680
17:00+5ne11360 0.0 102726
20:00+3ne12410 0.0 103022
27 january, wed
wed2723:00+1ene23480 0.0 102927
02:00−1ene23570 0.0 102931
05:00−2e22555 0.0 102925
08:00−2ene22510 0.0 103027
11:00+4e23320 0.0 1027361
14:00+7ene12250 0.0 1025589
17:00+5ne11300 0.0 102624
20:00+3ne22360 0.0 102922
28 january, thu
thu2823:00+1ene34450 0.0 102849
02:000ene23530 0.0 102828
05:00−1ene22480 0.0 102724
08:00−2ene23460 0.0 102834
11:00+4e22290 0.0 1025341
14:00+7ene12230 0.0 1023563
17:00+6nne11280 0.0 102523
20:00+3nne22350 0.0 102722